HIMAWARI-8

Last updated on July 16, 2019, 4:07 a.m. UTC

1 40267U 14060A   19196.83435542 -.00000287  00000-0  00000-0 0  9998
2 40267   0.0447 231.1353 0001356 267.6397 235.5942  1.00271903 17404
UTC
Height (km)
Latitude
Longitude
Inclination
Orbital Period
UTC large
Height (km)
Speed (km/s)
/
Latitude / Longitude
Inclination (degrees)
Orbital Period (minutes)
Azimuth
Elevation
Range (km)
Doppler Factor
iOS Compass Heading
iOS Angle

Next 30 passes for location: Hong Kong

Rise time Rise Azimuth (degrees) Set time Set Azimuth (degrees) Duration Max altitude (degrees)

No matching passes for this satellites